Location: Unspecified
(51.5147°N, 7.4673°E)
Time: 12:56:32
(UTC+01:00)

Vanguard 2 Rocket - All Passes

Search period start: 16 February 2026 00:00
Search period end: 26 February 2026 00:00
Orbit: 553 x 3286 km, 32.9° (Epoch: 16 February)

Date Brightness Start Highest point End Pass type
(mag) Time Alt. Az. Time Alt. Az. Time Alt. Az.
16 Feb - 12:26:53 10° SSW 12:39:20 23° SSE 12:48:56 10° ESE daylight
16 Feb - 14:39:58 10° SW 14:53:02 31° S 15:01:49 10° ESE daylight
16 Feb - 16:56:07 10° WSW 17:05:41 25° SSW 17:12:11 10° SSE daylight
17 Feb - 11:22:07 10° S 11:33:21 19° SSE 11:42:45 10° ESE daylight
17 Feb - 13:33:08 10° SW 13:47:16 30° S 13:57:15 10° ESE daylight
17 Feb - 15:48:30 10° WSW 16:00:37 30° SSW 16:08:36 10° SE daylight
17 Feb - 18:06:13 10° WSW 18:12:21 16° SW 18:17:02 10° S daylight
18 Feb - 10:19:13 10° SSE 10:27:25 14° SE 10:34:53 10° ESE daylight
18 Feb - 12:26:51 10° SSW 12:41:14 28° SSE 12:52:09 10° ESE daylight
18 Feb - 14:41:04 10° WSW 14:55:07 33° S 15:04:32 10° SE daylight
18 Feb - 16:57:55 10° WSW 17:07:43 24° SSW 17:14:29 10° SSE daylight
19 Feb - 11:21:25 10° SSW 11:35:05 24° SSE 11:46:21 10° ESE daylight
19 Feb - 13:33:56 10° SW 13:49:15 34° S 14:00:01 10° ESE daylight
19 Feb - 15:50:01 10° WSW 16:02:39 30° SSW 16:11:04 10° SE daylight
19 Feb - 18:08:52 10° WSW 18:14:12 14° SW 18:18:30 10° SSW daylight
20 Feb - 10:17:11 10° S 10:28:58 19° SE 10:39:31 10° ESE daylight
20 Feb - 12:27:20 10° SW 12:43:05 33° SSE 12:55:01 10° ESE daylight
20 Feb - 14:42:21 10° WSW 14:57:07 35° S 15:07:05 10° SE daylight
20 Feb - 16:59:53 10° WSW 17:09:37 22° SSW 17:16:32 10° SSE daylight
21 Feb - 09:15:08 10° SSE 09:23:02 14° SE 09:30:38 10° ESE daylight
21 Feb - 11:21:28 10° SSW 11:36:45 29° SSE 11:49:25 10° ESE daylight
21 Feb - 13:35:01 10° SW 13:51:09 37° S 14:02:38 10° ESE daylight
21 Feb - 15:51:40 10° WSW 16:04:33 29° SSW 16:13:20 10° SSE daylight
21 Feb - 18:12:15 10° WSW 18:15:54 12° SW 18:19:04 10° SSW daylight
22 Feb - 10:16:33 10° SSW 10:30:28 25° SSE 10:43:00 10° ESE daylight
22 Feb - 12:28:11 10° SW 12:44:52 36° S 12:57:40 10° ESE daylight
22 Feb - 14:43:48 10° WSW 14:59:00 35° SSW 15:09:28 10° SE daylight
22 Feb - 17:02:03 10° WSW 17:11:21 20° SW 17:18:14 10° S daylight
23 Feb - 09:13:01 10° S 09:24:22 19° SE 09:35:20 10° ESE daylight
23 Feb - 11:22:02 10° SW 11:38:23 34° SSE 11:52:08 10° ESE daylight
23 Feb - 13:36:18 10° WSW 13:52:59 38° S 14:05:03 10° ESE daylight
23 Feb - 15:53:26 10° WSW 16:06:19 28° SSW 16:15:22 10° SSE daylight
24 Feb - 08:12:23 10° SSE 08:18:35 12° SE 08:24:51 10° ESE daylight
24 Feb - 10:16:43 10° SSW 10:31:56 29° SSE 10:45:55 10° ESE daylight
24 Feb - 12:29:19 10° SW 12:46:35 39° S 13:00:07 10° ESE daylight
24 Feb - 14:45:23 10° WSW 15:00:47 34° SSW 15:11:40 10° SE daylight
24 Feb - 17:04:33 10° WSW 17:12:55 17° SW 17:19:28 10° S daylight
25 Feb - 09:12:27 10° S 09:25:40 24° SE 09:38:46 10° ESE daylight
25 Feb - 11:22:58 10° SW 11:40:00 37° SSE 11:54:38 10° ESE daylight
25 Feb - 13:37:46 10° WSW 13:54:44 39° S 14:07:19 10° SE daylight
25 Feb - 15:55:24 10° W 16:07:56 25° SSW 16:17:07 10° SSE daylight
